Powrót do katalogu

COSMOS 2493

SKRL 756

AktywnyNawigacjaPO
NORAD 39490·PAYLOAD·🇷🇺 Russia

Wystrzelony Dec 28, 2013 z Plesetsk Cosmodrome

Loading…

Następne Przeloty (najbliższe 24 godziny)

TLE

ŚwieżeSource: Space-Track

Epoka: Sep 14, 2026, 14:24 UTC

1 39490U 13078A   26257.60062767  .00002192  00000-0  16269-3 0  9991
2 39490  82.4155 173.6941 0011567 307.0871  52.9296 15.02555583691388

Śledź COSMOS 2493 w czasie rzeczywistym z AllMySat

Download on the App Store